Flag for U.S.A. Weather past 2 weeks in Fort Bragg, California, U.S.A.

Now
50 °F

Clear.


Feels Like: 49 °F
Forecast: 55 / 68 °F
Wind: 3 mph from Southeast

Location: Ukiah Municipal

Current Time: Sep 5, 2015 at 3:27:41 AM

Latest Report: Sep 5, 2015 at 2:56 AM


Visibility: 10 mi

Pressure: 29.93 "Hg

Humidity: 74%

Dew point: 42 °F

Location of Fort BraggLocation

Historic Weather in Fort Bragg — Graph

°F

Fort Bragg temperature yesterday

Maximum temperature yesterday: 75 °F (at 1:56 PM)
Minimum temperature yesterday: 48 °F (at 3:56 AM)
Average temperature yesterday: 62 °F

Past Weeks' High & Low Weather Summary

 TemperatureHumidityPressure
High96 °F (Aug 27, 1:56 PM)97% (Aug 21, 5:56 AM)30.06 "Hg (Aug 21, 5:56 AM)
Low48 °F (Sep 4, 3:56 AM)14% (Aug 26, 12:56 PM)29.74 "Hg (Aug 21, 4:56 PM)
Average69 °F54%29.91 "Hg
* Reported Aug 21 1:56 AM — Sep 5 1:56 AM, Fort Bragg, Weather by CustomWeather, © 2015

Note: Actual official high and low records may vary slightly from our data, if they occured in-between our weather recording intervals... More about our weather records

Advertising

Fort Bragg weather history for previous 24 hours

 ConditionsComfort  
Time TempWeatherWind HumidityBarometerVisibility
1:56 AM
Sat, Sep 5
53 °FClear.3 mph69%29.93 "Hg10 mi
12:56 AM54 °FClear.5 mph69%29.92 "Hg10 mi
11:56 PM
Fri, Sep 4
55 °FClear.3 mph67%29.92 "Hg10 mi
10:56 PM59 °FClear.6 mph60%29.91 "Hg10 mi
9:56 PM61 °FClear.5 mph56%29.90 "Hg10 mi
8:56 PM62 °FClear.10 mph54%29.89 "Hg10 mi
7:56 PM64 °FSunny.13 mph49%29.87 "Hg10 mi
6:56 PM68 °FSunny.8 mph39%29.86 "Hg10 mi
5:56 PM71 °FSunny.12 mph34%29.85 "Hg10 mi
4:56 PM73 °FSunny.14 mph34%29.84 "Hg10 mi
3:56 PM74 °FSunny.18 mph33%29.83 "Hg10 mi
2:56 PM75 °FSunny.13 mph31%29.83 "Hg10 mi
1:56 PM75 °FSunny.10 mph30%29.83 "Hg10 mi
12:56 PM74 °FSunny.13 mph31%29.84 "Hg10 mi
11:56 AM72 °FSunny.10 mph30%29.86 "Hg10 mi
10:56 AM69 °FSunny.12 mph33%29.87 "Hg10 mi
9:56 AM65 °FSunny.9 mph42%29.87 "Hg10 mi
8:56 AM60 °FSunny.5 mph53%29.88 "Hg10 mi
7:56 AM50 °FSunny.No wind74%29.88 "Hg10 mi
6:56 AM50 °FClear.No wind71%29.86 "Hg10 mi
5:56 AM50 °FClear.3 mph71%29.85 "Hg10 mi
4:56 AM50 °FClear.3 mph71%29.84 "Hg10 mi
3:56 AM48 °FClear.No wind77%29.83 "Hg10 mi
Weather by CustomWeather, © 2015

See weather overviewHow to use our weather pages